Hourly Data Report for August 25, 2020

ALGONQUIN PARK EAST GATE
ONTARIO
Current Station Operator: ECCC - MSC

45°32'00.000" N
78°16'00.000" W
397.00 m
6080192
71581
TNK

Download Data

Hourly Data (August 2020)
Hourly Data Report for August 25, 2020
TIME
LST
Temp Definition
°C
Dew Point Definition
°C
Rel Hum Definition
%
Precip. Amount Definition
mm

Wind Dir Definition
10's deg

Wind Spd Definition
km/h
Visibility Definition
km
Stn Press Definition
kPa
Hmdx Definition


Wind Chill Definition


Weather Definition


00:00 18.8 17.5 92 0.0   0   96.29     LegendNANA
01:00 19.2 17.8 92 0.0 26 4   96.23     LegendNANA
02:00 19.0 17.7 92 0.0 25 3   96.19     LegendNANA
03:00 18.7 17.5 93 0.0 26 2   96.20     LegendNANA
04:00 18.1 16.8 93 0.0 0 1   96.24     LegendNANA
05:00 17.4 16.3 93 0.0   0   96.30     LegendNANA
06:00 17.6 15.8 89 0.0 29 3   96.39     LegendNANA
07:00 17.3 14.9 86 0.0 34 3   96.45     LegendNANA
08:00 17.9 14.4 80 0.0 32 5   96.49     LegendNANA
09:00 18.8 13.1 70 0.0 32 4   96.50     LegendNANA
10:00 18.9 11.6 63 0.0 31 7   96.55     LegendNANA
11:00 20.0 11.7 59 0.0 35 8   96.55     LegendNANA
12:00 19.5 10.8 57 0.0 36 9   96.56     LegendNANA
13:00 19.2 10.8 59 0.0 33 9   96.58     LegendNANA
14:00 19.1 10.7 58 0.0 33 9   96.60     LegendNANA
15:00 19.1 10.4 57 0.0 32 11   96.64     LegendNANA
16:00 17.3 10.2 63 0.0 36 8   96.73     LegendNANA
17:00 16.2 9.8 66 0.0 34 8   96.79     LegendNANA
18:00 15.4 8.4 63 0.0 35 5   96.81     LegendNANA
19:00 13.0 9.1 77 0.0 0 1   96.85     LegendNANA
20:00 11.8 8.2 78 0.0 33 1   96.93     LegendNANA
21:00 11.3 7.7 79 0.0 36 2   97.03     LegendNANA
22:00 11.1 6.5 73 0.0 36 5   97.03     LegendNANA
23:00 8.3 5.7 84 0.0   0   97.09     LegendNANA

Notes on Data Quality.

Legend

  • E = Estimated
  • M = Missing
  • NA = Not Available*
  • [empty] = Indicates an unobserved value
Date modified: